Battle Creek, MI

7:38 PM EDT on April 21, 2018 (GMT -0400)
Kellogg

Weather History for KBTL - December, 2013

Change the Weather History Date:

Monday, December 9, 2013

  Actual Average Record
Temperature  
Mean Temperature 22 °F 29 °F  
Max Temperature 27 °F 37 °F 53 °F (1999)
Min Temperature 17 °F 22 °F 3 °F (2002)
Degree Days  
Heating Degree Days 43 36  
Month to date heating degree days 299 308  
Since 1 July heating degree days 1700 1746  
Cooling Degree Days 0 0  
Month to date cooling degree days 0 0  
Year to date cooling degree days 689 578  
Moisture  
Dew Point 18 °F    
Average Humidity 77    
Maximum Humidity 92    
Minimum Humidity 62    
Precipitation  
Precipitation T in 0.07 in 0.43 in (2008)
Month to date precipitation 0.12 0.62  
Year to date precipitation 33.92 31.78  
Sea Level Pressure  
Sea Level Pressure 30.00 in    
Wind  
Wind Speed 16 mph (WSW)    
Max Wind Speed 28 mph    
Max Gust Speed 38 mph    
Visibility 5 miles    
Events Snow    
T = Trace of Precipitation, MM = Missing Value Source: NWS Daily Summary

Daily Weather History Graph

Daily Weather History Graph

Search for Another Location

Airport or City:

Astronomy

Dec. 09, 2013 Rise Set
Actual Time 7:58 AM EST 5:08 PM EST
Civil Twilight 7:26 AM EST 5:40 PM EST
Nautical Twilight 6:51 AM EST 6:15 PM EST
Astronomical Twilight 6:17 AM EST 6:49 PM EST
Moon 12:44 PM EST (12/9) 12:03 AM EST (12/9)
Length of Visible Light 10h 13m
Length of Day
9h 10m
Waxing Crescent, 51% of the Moon is Illuminated
Dec 9
Waxing Crescent
Dec 17
Full
Dec 25
Last Quarter
Jan 1
New
Jan 7
First Quarter

Hourly Weather History & Observations

Time (EST) Temp. Windchill Dew Point Humidity Pressure Visibility Wind Dir Wind Speed Gust Speed Precip Events Conditions
12:14 AM 24.8 °F 20.5 °F 23.0 °F 93% 29.93 in 2.0 mi SE 3.5 mph - 0.00 in Snow Light Snow
12:27 AM 26.6 °F 22.6 °F 23.0 °F 86% 29.92 in 1.8 mi SSE 3.5 mph - 0.00 in Snow Light Snow
12:32 AM 26.6 °F 20.0 °F 23.0 °F 86% 29.92 in 2.0 mi SSE 5.8 mph - 0.00 in Snow Light Snow
12:53 AM 26.1 °F 17.6 °F 23.0 °F 88% 29.94 in 4.0 mi South 8.1 mph - 0.00 in Snow Light Snow
1:29 AM 26.6 °F 16.2 °F 23.0 °F 86% 29.88 in 7.0 mi South 11.5 mph - 0.00 in   Overcast
1:51 AM 26.6 °F 16.2 °F 23.0 °F 86% 29.88 in 2.5 mi SSW 11.5 mph - 0.00 in Snow Light Snow
1:53 AM 26.1 °F 14.5 °F 23.0 °F 88% 29.92 in 3.0 mi SSW 13.8 mph - 0.00 in Snow Light Snow
2:53 AM 26.1 °F 15.6 °F 23.0 °F 88% 29.92 in 9.0 mi SW 11.5 mph - 0.00 in   Overcast
3:53 AM 26.1 °F 13.6 °F 23.0 °F 88% 29.92 in 8.0 mi WSW 16.1 mph - N/A   Overcast
4:25 AM 26.6 °F 15.2 °F 23.0 °F 86% 29.87 in 8.0 mi WSW 13.8 mph - N/A   Overcast
4:53 AM 27.0 °F 16.1 °F 23.0 °F 85% 29.91 in 8.0 mi SW 12.7 mph - N/A   Overcast
5:53 AM 27.0 °F 14.7 °F 23.0 °F 85% 29.91 in 5.0 mi SW 16.1 mph - N/A   Overcast
6:53 AM 26.1 °F 13.6 °F 23.0 °F 88% 29.93 in 5.0 mi SW 16.1 mph - N/A   Overcast
7:53 AM 26.1 °F 13.6 °F 23.0 °F 88% 29.95 in 8.0 mi WSW 16.1 mph 26.5 mph N/A   Overcast
8:53 AM 26.1 °F 12.7 °F 21.9 °F 84% 29.97 in 4.0 mi WSW 18.4 mph 26.5 mph 0.00 in Snow Light Snow
9:32 AM 26.6 °F 13.8 °F 21.2 °F 80% 29.95 in 2.5 mi WSW 17.3 mph - 0.00 in Snow Light Snow
9:53 AM 26.1 °F 12.7 °F 21.0 °F 81% 30.01 in 2.5 mi WSW 18.4 mph - 0.00 in Snow Light Snow
10:07 AM 26.6 °F 14.7 °F 21.2 °F 80% 29.97 in 1.2 mi WSW 15.0 mph - 0.00 in Snow Light Snow
10:53 AM 26.1 °F 13.6 °F 21.9 °F 84% 30.03 in 1.2 mi WSW 16.1 mph - 0.00 in Snow Light Snow
11:13 AM 26.6 °F 14.3 °F 21.2 °F 80% 29.98 in 2.5 mi WSW 16.1 mph - 0.00 in Snow Light Snow
11:23 AM 26.6 °F 13.8 °F 21.2 °F 80% 29.98 in 3.0 mi WSW 17.3 mph 24.2 mph 0.00 in Snow Light Snow
11:43 AM 26.6 °F 14.7 °F 19.4 °F 74% 29.98 in 8.0 mi WSW 15.0 mph 27.6 mph 0.00 in   Overcast
11:53 AM 26.1 °F 12.3 °F 19.9 °F 78% 30.01 in 6.0 mi WSW 19.6 mph - 0.00 in Snow Light Snow
12:53 PM 25.0 °F 10.6 °F 19.0 °F 78% 30.01 in 3.0 mi WSW 20.7 mph - 0.00 in Snow Light Snow
1:01 PM 24.8 °F 10.7 °F 19.4 °F 80% 29.98 in 2.0 mi WSW 19.6 mph 27.6 mph 0.00 in Snow Light Snow
1:10 PM 24.8 °F 9.6 °F 19.4 °F 80% 29.99 in 1.2 mi WSW 23.0 mph - 0.00 in Snow Light Snow
1:34 PM 24.8 °F 10.7 °F 19.4 °F 80% 30.00 in 0.8 mi WSW 19.6 mph 27.6 mph 0.00 in Snow Light Snow
1:43 PM 24.8 °F 12.4 °F 19.4 °F 80% 30.00 in 1.0 mi WSW 15.0 mph 26.5 mph 0.00 in Snow Light Snow
1:53 PM 24.1 °F 10.1 °F 19.0 °F 81% 30.05 in 1.2 mi WSW 18.4 mph - 0.00 in Snow Light Snow
2:03 PM 24.8 °F 9.6 °F 19.4 °F 80% 30.01 in 1.0 mi WSW 23.0 mph 32.2 mph 0.00 in Snow Light Snow
2:30 PM 24.8 °F 10.0 °F 17.6 °F 74% 30.02 in 2.5 mi WSW 21.9 mph 28.8 mph 0.00 in Snow Light Snow
2:44 PM 24.8 °F 10.3 °F 17.6 °F 74% 30.02 in 3.0 mi WSW 20.7 mph - 0.00 in Snow Light Snow
2:53 PM 24.1 °F 10.6 °F 17.1 °F 75% 30.06 in 5.0 mi WSW 17.3 mph 25.3 mph 0.00 in Snow Light Snow
3:12 PM 23.0 °F 9.6 °F 17.6 °F 80% 30.03 in 1.8 mi SW 16.1 mph 23.0 mph 0.00 in Snow Light Snow
3:53 PM 21.9 °F 7.3 °F 16.0 °F 78% 30.08 in 1.5 mi SW 18.4 mph - 0.00 in Snow Light Snow
4:16 PM 21.2 °F 7.3 °F 15.8 °F 80% 30.05 in 3.0 mi WSW 16.1 mph 26.5 mph 0.00 in Snow Light Snow
4:53 PM 21.0 °F 6.2 °F 14.0 °F 74% 30.11 in 4.0 mi SW 18.4 mph 25.3 mph 0.00 in Snow Light Snow
5:44 PM 19.4 °F 4.1 °F 12.2 °F 74% 30.06 in 9.0 mi WSW 18.4 mph 27.6 mph 0.00 in   Scattered Clouds
5:53 PM 19.9 °F 4.8 °F 12.9 °F 74% 30.10 in 10.0 mi WSW 18.4 mph - 0.00 in   Partly Cloudy
6:53 PM 19.9 °F 6.7 °F 12.0 °F 71% 30.11 in 10.0 mi WSW 13.8 mph 21.9 mph N/A   Scattered Clouds
7:04 PM 19.4 °F 4.5 °F 12.2 °F 74% 30.07 in 10.0 mi WSW 17.3 mph 21.9 mph N/A   Mostly Cloudy
7:53 PM 19.9 °F 4.8 °F 12.0 °F 71% 30.13 in 10.0 mi West 18.4 mph - N/A   Overcast
8:53 PM 19.9 °F 5.2 °F 10.0 °F 65% 30.14 in 10.0 mi West 17.3 mph 24.2 mph N/A   Overcast
9:53 PM 19.0 °F 4.5 °F 9.0 °F 65% 30.14 in 10.0 mi West 16.1 mph 21.9 mph N/A   Mostly Cloudy
10:43 PM 17.6 °F 3.7 °F 8.6 °F 68% 30.09 in 10.0 mi West 13.8 mph 24.2 mph N/A   Mostly Cloudy
10:53 PM 18.0 °F 3.6 °F 8.1 °F 65% 30.14 in 10.0 mi West 15.0 mph 20.7 mph N/A   Mostly Cloudy
11:53 PM 17.1 °F 2.5 °F 8.1 °F 68% 30.14 in 10.0 mi West 15.0 mph - 0.00 in   Overcast